Location: Владивосток
(43.1151°N, 131.8856°E)
Time: 12:10:59
(UTC+10:00)

FENGYUN 1C DEB - Visible Passes

Search period start: 10 December 2022 00:00
Search period end: 20 December 2022 00:00
Orbit: 776 x 811 km, 99.1° (Epoch: 09 December)

Date Brightness Start Highest point End Pass type
(mag) Time Alt. Az. Time Alt. Az. Time Alt. Az.
10 Dec ? 07:40:54 10° SSE 07:45:52 54° ENE 07:50:54 10° N visible
11 Dec ? 07:13:09 10° SE 07:17:36 31° ENE 07:22:04 10° N visible
12 Dec ? 06:46:02 10° ESE 06:49:27 18° ENE 06:52:51 10° NNE visible
13 Dec ? 06:20:34 10° ENE 06:21:24 10° NE 06:22:13 10° NE visible
13 Dec ? 07:54:52 10° SSE 07:59:57 72° ENE 08:05:06 10° N visible
14 Dec ? 07:26:51 10° SE 07:31:35 40° ENE 07:36:23 10° N visible
15 Dec ? 06:59:23 10° ESE 07:03:21 23° ENE 07:07:22 10° NNE visible
16 Dec ? 06:32:45 10° E 06:35:14 14° ENE 06:37:44 10° NNE visible
17 Dec ? 07:40:36 10° SE 07:45:33 52° ENE 07:50:34 10° N visible
18 Dec ? 07:12:50 10° SE 07:17:14 30° ENE 07:21:41 10° N visible
19 Dec ? 06:45:43 10° E 06:49:02 18° ENE 06:52:23 10° NNE visible
